Regional Weather Roundup
Issued by NWS Wilmington, NC

Home | Current Version | Previous Version | Text Only | Print | Product List | Glossary On
Versions: 1 2 3 4 5 6 7 8 9 10 11 12 13 14 15 16 17 18 19 20 21 22 23 24 25 26 27 28 29 30 31 32 33 34 35 36 37 38 39 40 41 42 43 44 45 46 47 48 49 50
000
ASUS42 KILM 300010
RWRILM
RWRILM
REGIONAL HOURLY WEATHER ROUNDUP
NATIONAL WEATHER SERVICE WILMINGTON NC
800 PM EDT FRI AUG 29 2014

NOTE: "FAIR" INDICATES FEW OR NO CLOUDS BELOW 12,000 FEET WITH NO
SIGNIFICANT WEATHER AND/OR OBSTRUCTIONS TO VISIBILITY.

...............WFO WILMINGTON COUNTY WARNING AREA...............

......COASTAL NC AND SC COUNTIES......

CITY           SKY/WX    TMP DP  RH WIND       PRES   REMARKS
WILMINGTON     CLEAR     80  73  79 S5        30.10R
SOUTHPORT      CLEAR     79  71  75 CALM      30.11R
N MYRTLE BEACH CLEAR     82  74  76 SE7       30.10R
MYRTLE BEACH   CLEAR     82  73  74 SE12      30.10R

......INLAND NC AND SC COUNTIES.......

CITY           SKY/WX    TMP DP  RH WIND       PRES   REMARKS
LUMBERTON      CLEAR     82  71  69 CALM      30.08R
ELIZABETHTOWN  CLEAR     83  68  60 S6        30.09R
WHITEVILLE     CLEAR     81  68  65 SE3       30.09R
FLORENCE       CLEAR     85  66  53 S3        30.08R
DARLINGTON     CLEAR     84  64  51 SE6       30.08R

....................REST OF NORTH CAROLINA......................

.........EASTERN NC.........

CITY           SKY/WX    TMP DP  RH WIND       PRES   REMARKS
CAPE HATTERAS  PTCLDY    77  75  93 E12       30.13R
JACKSONVILLE   PTCLDY    81  72  74 E5        30.12R
MOREHEAD CITY  MOCLDY    80  74  81 NE5       30.13R
KENANSVILLE    MOCLDY    81  72  75 E5        30.12R
NEW BERN       CLEAR     79  71  76 E7        30.14R
ELIZABETH CITY MOCLDY    74  66  76 E9        30.16S

.........CENTRAL NC.........

CITY           SKY/WX    TMP DP  RH WIND       PRES   REMARKS
RALEIGH DURHAM PTCLDY    78  70  76 E6        30.13R
ROCKY MOUNT    CLOUDY    77  69  76 E3        30.13S
ROANOKE RAPIDS NOT AVBL
FAYETTEVILLE   PTCLDY    83  74  74 NE5       30.09R
HOFFMAN        PTCLDY    83  72  70 E3        30.11R

.........WESTERN NC.........

CITY           SKY/WX    TMP DP  RH WIND       PRES   REMARKS
CHARLOTTE      PTCLDY    83  68  60 E8        30.10S
GREENSBORO     PTCLDY    76  70  82 E6        30.14R
HICKORY        NOT AVBL
BOONE          NOT AVBL
ASHEVILLE      NOT AVBL

.....................REST OF SOUTH CAROLINA.....................

.........EASTERN SC.........

CITY           SKY/WX    TMP DP  RH WIND       PRES   REMARKS
CHARLESTON     PTCLDY    83  73  72 SE8       30.09R
BEAUFORT MCAS  CLEAR     82  71  69 S5        30.07S
HILTON HEAD    NOT AVBL

.........CENTRAL SC.........

CITY           SKY/WX    TMP DP  RH WIND       PRES   REMARKS
COLUMBIA       PTCLDY    87  56  34 E7        30.05R
ORANGEBURG     CLOUDY    82  69  64 SE14G21   30.07R
SUMTER SHAW    CLEAR     87  63  45 SE3       30.06R

.........WESTERN SC.........

CITY           SKY/WX    TMP DP  RH WIND       PRES   REMARKS
GREENVILLE     NOT AVBL
ROCK HILL      CLEAR     82  71  69 CALM      30.09S
ANDERSON       PTCLDY    85  66  53 E9        30.06R
CLEMSON        NOT AVBL
GREENWOOD      CLEAR     88  59  37 SE6       30.06S


...................COASTAL AND OFFSHORE REPORTS..................

................LOCAL PIERS AND NC RESERVE................


STATION/POSITION TIME  SKY/WX   TEMP    WIND        PRES    VSBY
                                AIR SEA DIR/SP/G
                 (UTC)          (F)     (DEG/KT/KT) (MB)    (MI)
JOHNY MRCER PIER 0000            81 84  170/ 11/ 12 1018.8R
NC RESRV MASNBRO 2300            83     170/  4     1019.0S
OCEAN CREST PIER 0000            81 84  120/ 12/ 13 1018.4R
SPRINGMAID  PIER 0000            81 83  120/ 11/ 12 1019.2R


................COASTAL AND OFFSHORE BUOYS................


STATION/POSITION TIME  SKY/WX   TEMP    WIND        PRES    VSBY
                                AIR SEA DIR/SP/G
                 (UTC)          (F)     (DEG/KT/KT) (MB)    (MI)
DIMNDSHOAL 41025 0000            77      60/ 14/ 14 1019.9R
WVE H/P(F/S)=  3/ 8 WND WVE H/P(F/S)=  2/ 4 SWL H/P/D(F/S/D)=  3/140/ 8

CAPE LOOKOUT     2300            81      90/  3/  3 1019.5F
ONSLOW BAY 41036 0000            82 83  150/  8/ 10 1019.7R
WVE H/P(F/S)=  2/ 8 SWL H/P/D(F/S/D)=  2/130/ 8

5 WRITEBCH 41038 0000            78 82  160/ 12/ 14   N/A
MASONBORO  41110 0000               82                N/A
WVE H/P(F/S)=  2/ 8 WND WVE H/P(F/S)=  2/ 8

WILM HARBR 41108 0000               83                N/A
WVE H/P(F/S)=  2/ 8 WND WVE H/P(F/S)=  2/ 8

27WRITEBCH 41037 2300            78 82  150/ 10/ 10 1019.1F
FRYING PAN 41013 NOT AVBL
SUNST NRSH 41024 2300            83     150/ 12/ 14 1018.7R
CAPRS NRSH 41029 2300            83     120/ 12/ 14   N/A
EDISTO     41004 0000            83 84  170/  8/  8 1018.4R
WVE H/P(F/S)=  3/ 8 WND WVE H/P(F/S)=  2/ 4 SWL H/P/D(F/S/D)=  2/ 8



..........OFFSHORE BUOYS BEYOND 100 NM OFFSHORE...........
.....IN A TRIANGLE---HAT TO BERMUDA TO BAHAMAS TO HAT.....


STATION/POSITION TIME  SKY/WX   TEMP    WIND        PRES    VSBY
                                AIR SEA DIR/SP/G
                 (UTC)          (F)     (DEG/KT/KT) (MB)    (MI)
150E HAT   41001 NOT AVBL
W BERMUDA  41048 NOT AVBL
ATLANTIC S 41049 NOT AVBL
E BAHAMAS  41046 2243            84 85   80/ 12/ 14 1018.5
WVE H/P(F/S)=  5/ 8 WND WVE H/P(F/S)=  2/ 4 SWL H/P/D(F/S/D)=  5/100/ 8

NE BAHAMAS 41047 2247            81 84   70/ 10/ 12 1019.4
WVE H/P(F/S)=  6/ 8 WND WVE H/P(F/S)=  2/ 4 SWL H/P/D(F/S/D)=  5/140/ 8

120E CANVRL41010 0000            83 84   CALM  /  2 1018.7S
WVE H/P(F/S)=  3/ 7 WND WVE H/P(F/S)=  2/ 4 SWL H/P/D(F/S/D)=  3/ 90/ 7


END


USA.gov is the U.S. government's official web portal to all federal, state and local government web resources and services.